User: anonymous   Login
Location: Unspecified
(0.0000°N, 0.0000°E)
Time: 19:35:10
(UTC+00:00)
Language:

CORIOLIS - Orbit

View from above orbital plane
View from above orbital plane
View from above satellite
View from above satellite

Ground track
Ground track

The orbit data is extracted from the following two-line orbital elements,

1 27640U 03001A   19083.07085993 -.00000004  00000-0  19240-4 0  9990
2 27640  98.7353  94.2304 0013054 253.0147 143.7409 14.19003747839401
Epoch (UTC): 24 March 2019 01:42:02
Eccentricity: 0.0013054
inclination: 98.7353°
perigee height: 819 km
apogee height: 838 km
right ascension of ascending node: 94.2304°
argument of perigee: 253.0147°
revolutions per day: 14.19003747
mean anomaly at epoch: 143.7409°
orbit number at epoch: 83940

The dashed part of the orbit path shows where the satellite is in the earth's shadow,  

DLR